Portada
METAR-TAF:

METAR-TAF

Aeroports :

Cooma, Austràlia

latitud: 36-18-00S, longitud: 148-58-24E, altitud: 947 m

Observació

L'informe es va fer fa 1 hora i 20 minuts, a les 23:00 UTC
Vent 3 kt del Sud/Sud-Oest
Temperatura 19°C
Humitat 46%
Pressió 1015 hPa
Visibilitat 10 km o més
Cel ennuvolat a una alçada de 4300 ft
Cel ennuvolat a una alçada de 5100 ft

METAR: YCOM 212300Z AUTO 20003KT 9999 // BKN043 BKN051 19/07 Q1015

Hora: 11:20 (00:20 UTC)


TAF: manca

Observacions i pronòstics meteorològics de més de 4000 aeroports (METAR i TAF).

Les estacions disponibles són els punts grocs i vermells al mapa.

Posi el ratolí al punt desitjat per veure el nom de l'estació.

Feu clic per veure les observacions i els pronòstics meteorològics.

Per canviar el mapa: feu clic els botons verds amb una creu de color negre per apropar; al botó verd amb un guió per allunyar la imatge; o en les fletxes verdes per a mapes adjacents.


METAR-TAF: